Location: Bathurst
(33.4193°S, 149.5775°E)
Time: 00:20:12
(UTC+10:00)

A-11 Canister half - Pass Details

Date: 18 June 2021
Orbit: 1513 x 1687 km, 47.2° (Epoch: 28 July)

Event Time Altitude Azimuth Distance (km) Brightness Sun altitude
Rises 20:55:48 0° 241° (WSW) 4,781 12.2 -48.0°
Reaches altitude 10° 20:59:09 10° 233° (SW) 3,822 11.4 -48.7°
Enters shadow 21:03:27 27° 215° (SW) 2,766 10.4 -49.6°
